owner,sensor,date,latitude,longitude,vertical_datum,wind_speed,wind_to_direction,wind_speed_of_gust,qcFlag 
TABS,ioos:station:wmo:42045:1,2002-11-01T00:09:00Z,26.2168,-96.4998,4.0,1014.69468,279.766132,999.99,'11144222,11111222,11144222' 
TABS,ioos:station:wmo:42045:1,2002-11-01T00:39:00Z,26.2168,-96.4998,4.0,1013.305242,279.2986032,999.99,'11144222,11111222,11144222' 
TABS,ioos:station:wmo:42045:1,2002-11-01T01:09:00Z,26.2168,-96.4998,4.0,1012.575292,279.0428526,999.99,'11144222,11111222,11144222' 
TABS,ioos:station:wmo:42045:1,2002-11-01T01:39:00Z,26.2168,-96.4998,4.0,1012.410791,278.9841683,999.99,'11144222,11111222,11144222' 
TABS,ioos:station:wmo:42045:1,2002-11-01T02:09:00Z,26.2168,-96.4998,4.0,1011.039992,278.4787097,999.99,'11144222,11111222,11144222' 
TABS,ioos:station:wmo:42045:1,2002-11-01T02:39:00Z,26.2168,-96.4998,4.0,1012.311045,278.9483894,999.99,'11144222,11111222,11144222' 
TABS,ioos:station:wmo:42045:1,2002-11-01T03:09:00Z,26.2168,-96.4998,4.0,1011.372689,278.6042219,999.99,'11144222,11111222,11144222' 
TABS,ioos:station:wmo:42045:1,2002-11-01T03:39:00Z,26.2168,-96.4998,4.0,1010.664262,278.3346058,999.99,'11144222,11111222,11144222' 
TABS,ioos:station:wmo:42045:1,2002-11-01T04:09:00Z,26.2168,-96.4998,4.0,1011.853329,278.7822614,999.99,'11144222,11111222,11144222' 
TABS,ioos:station:wmo:42045:1,2002-11-01T04:39:00Z,26.2168,-96.4998,4.0,1010.565917,278.2964593,999.99,'11144222,11111222,11144222' 
TABS,ioos:station:wmo:42045:1,2002-11-01T05:09:00Z,26.2168,-96.4998,4.0,1009.976843,278.0640558,999.99,'11144222,11111222,11144222' 
TABS,ioos:station:wmo:42045:1,2002-11-01T05:39:00Z,26.2168,-96.4998,4.0,1008.169126,277.3032708,999.99,'11144222,11111222,11144222' 
TABS,ioos:station:wmo:42045:1,2002-11-01T06:09:00Z,26.2168,-96.4998,4.0,1008.61872,277.4999159,999.99,'11144222,11111222,11144222' 
TABS,ioos:station:wmo:42045:1,2002-11-01T06:39:00Z,26.2168,-96.4998,4.0,1008.160229,277.2993249,999.99,'11144222,11111222,11144222' 
TABS,ioos:station:wmo:42045:1,2002-11-01T07:09:00Z,26.2168,-96.4998,4.0,1008.348052,277.3821753,999.99,'11144222,11111222,11144222' 
TABS,ioos:station:wmo:42045:1,2002-11-01T07:39:00Z,26.2168,-96.4998,4.0,77.41014145,138.9076833,999.99,'11144222,11111222,11144222' 
TABS,ioos:station:wmo:42045:1,2002-11-01T08:09:00Z,26.2168,-96.4998,4.0,74.93919802,135.0435658,999.99,'11111222,11111222,11144222' 
TABS,ioos:station:wmo:42045:1,2002-11-01T08:39:00Z,26.2168,-96.4998,4.0,1006.896396,276.7145749,999.99,'11144222,11111222,11144222' 
TABS,ioos:station:wmo:42045:1,2002-11-01T09:09:00Z,26.2168,-96.4998,4.0,69.29772363,141.5096468,999.99,'11111222,11111222,11144222' 
TABS,ioos:station:wmo:42045:1,2002-11-01T09:39:00Z,26.2168,-96.4998,4.0,63.58344439,135.2042139,88.72,'11111222,11111222,11144222' 
TABS,ioos:station:wmo:42045:1,2002-11-01T10:09:00Z,26.2168,-96.4998,4.0,73.64896198,145.0414131,88.38,'11111222,11111222,11144222' 
TABS,ioos:station:wmo:42045:1,2002-11-01T10:39:00Z,26.2168,-96.4998,4.0,73.38239843,150.549806,999.99,'11111222,11111222,11144222' 
TABS,ioos:station:wmo:42045:1,2002-11-01T11:09:00Z,26.2168,-96.4998,4.0,76.04199103,150.9881209,999.99,'11144222,11111222,11144222' 
TABS,ioos:station:wmo:42045:1,2002-11-01T11:39:00Z,26.2168,-96.4998,4.0,76.12694464,147.6901451,999.99,'11144222,11111222,11144222' 
TABS,ioos:station:wmo:42045:1,2002-11-01T12:09:00Z,26.2168,-96.4998,4.0,64.13741498,140.5424459,999.99,'11111222,11111222,11144222' 
TABS,ioos:station:wmo:42045:1,2002-11-01T12:39:00Z,26.2168,-96.4998,4.0,71.21006741,141.0250908,999.99,'11111222,11111222,11144222' 
TABS,ioos:station:wmo:42045:1,2002-11-01T13:09:00Z,26.2168,-96.4998,4.0,75.91307134,148.7517591,999.99,'11144222,11111222,11144222' 
TABS,ioos:station:wmo:42045:1,2002-11-01T13:39:00Z,26.2168,-96.4998,4.0,74.67515584,137.9150039,999.99,'11111222,11111222,11144222' 
TABS,ioos:station:wmo:42045:1,2002-11-01T14:09:00Z,26.2168,-96.4998,4.0,76.19364869,140.3198971,999.99,'11144222,11111222,11144222' 
TABS,ioos:station:wmo:42045:1,2002-11-01T14:39:00Z,26.2168,-96.4998,4.0,70.11707353,135.1852143,999.99,'11111222,11111222,11144222' 
TABS,ioos:station:wmo:42045:1,2002-11-01T15:09:00Z,26.2168,-96.4998,4.0,74.07410951,131.5799056,999.99,'11111222,11111222,11144222' 
TABS,ioos:station:wmo:42045:1,2002-11-01T15:39:00Z,26.2168,-96.4998,4.0,1008.505532,277.450912,999.99,'11144222,11111222,11144222' 
TABS,ioos:station:wmo:42045:1,2002-11-01T16:09:00Z,26.2168,-96.4998,4.0,71.83270912,141.108795,999.99,'11111222,11111222,11144222' 
TABS,ioos:station:wmo:42045:1,2002-11-01T16:39:00Z,26.2168,-96.4998,4.0,74.78575265,135.4337087,999.99,'11111222,11111222,11144222' 
TABS,ioos:station:wmo:42045:1,2002-11-01T17:09:00Z,26.2168,-96.4998,4.0,1007.940634,277.2012174,999.99,'11144222,11111222,11144222' 
TABS,ioos:station:wmo:42045:1,2002-11-01T17:39:00Z,26.2168,-96.4998,4.0,1009.193024,277.7436438,999.99,'11144222,11111222,11144222' 
TABS,ioos:station:wmo:42045:1,2002-11-01T18:09:00Z,26.2168,-96.4998,4.0,1008.42532,277.4159829,999.99,'11144222,11111222,11144222' 
TABS,ioos:station:wmo:42045:1,2002-11-01T18:39:00Z,26.2168,-96.4998,4.0,1009.47539,277.8606236,999.99,'11144222,11111222,11144222' 
TABS,ioos:station:wmo:42045:1,2002-11-01T19:09:00Z,26.2168,-96.4998,4.0,41.8242095,137.0640434,85.07,'11111222,11111222,11144222' 
TABS,ioos:station:wmo:42045:1,2002-11-01T19:39:00Z,26.2168,-96.4998,4.0,43.63358454,141.1682309,84.72,'11111222,11111222,11144222' 
TABS,ioos:station:wmo:42045:1,2002-11-01T20:09:00Z,26.2168,-96.4998,4.0,63.92472135,132.8576436,999.99,'11111222,11111222,11144222' 
TABS,ioos:station:wmo:42045:1,2002-11-01T20:39:00Z,26.2168,-96.4998,4.0,1008.789226,277.5731197,999.99,'11144222,11111222,11144222' 
TABS,ioos:station:wmo:42045:1,2002-11-01T21:09:00Z,26.2168,-96.4998,4.0,53.96829532,113.1306502,999.99,'11111222,11111222,11144222' 
TABS,ioos:station:wmo:42045:1,2002-11-01T22:09:00Z,26.2168,-96.4998,4.0,1008.565287,277.4768235,999.99,'11144222,11111222,11144222' 
TABS,ioos:station:wmo:42045:1,2002-11-01T22:39:00Z,26.2168,-96.4998,4.0,1008.081644,277.2643719,999.99,'11144222,11111222,11144222' 
TABS,ioos:station:wmo:42045:1,2002-11-01T23:09:00Z,26.2168,-96.4998,4.0,75.28050611,134.5912987,88.43,'11144222,11111222,11144222' 
TABS,ioos:station:wmo:42045:1,2002-11-01T23:39:00Z,26.2168,-96.4998,4.0,1008.828807,277.5900093,999.99,'11144222,11111222,11144222' 
TABS,ioos:station:wmo:42045:1,2002-11-02T00:09:00Z,26.2168,-96.4998,4.0,1009.381255,277.8218251,999.99,'11144222,11111222,11144222' 
TABS,ioos:station:wmo:42045:1,2002-11-02T01:09:00Z,26.2168,-96.4998,4.0,1009.957213,278.056192,999.99,'11144222,11111222,11144222' 
TABS,ioos:station:wmo:42045:1,2002-11-02T01:39:00Z,26.2168,-96.4998,4.0,1010.182686,278.1460454,999.99,'11144222,11111222,11144222' 
TABS,ioos:station:wmo:42045:1,2002-11-02T02:09:00Z,26.2168,-96.4998,4.0,1009.795298,277.9910233,999.99,'11144222,11111222,11144222' 
TABS,ioos:station:wmo:42045:1,2002-11-02T02:39:00Z,26.2168,-96.4998,4.0,1009.457619,277.8533143,999.99,'11144222,11111222,11144222' 
TABS,ioos:station:wmo:42045:1,2002-11-02T03:09:00Z,26.2168,-96.4998,4.0,1009.405767,277.8319472,999.99,'11144222,11111222,11144222' 
TABS,ioos:station:wmo:42045:1,2002-11-02T04:09:00Z,26.2168,-96.4998,4.0,1008.381492,277.3968259,999.99,'11144222,11111222,11144222' 
TABS,ioos:station:wmo:42045:1,2002-11-02T04:39:00Z,26.2168,-96.4998,4.0,1011.997275,278.8348569,999.99,'11144222,11111222,11144222' 
TABS,ioos:station:wmo:42045:1,2002-11-02T05:09:00Z,26.2168,-96.4998,4.0,1008.864506,277.6052089,999.99,'11144222,11111222,11144222' 
TABS,ioos:station:wmo:42045:1,2002-11-02T05:39:00Z,26.2168,-96.4998,4.0,1008.98268,277.6553035,999.99,'11144222,11111222,11144222' 
TABS,ioos:station:wmo:42045:1,2002-11-02T06:09:00Z,26.2168,-96.4998,4.0,1008.724765,277.5455304,999.99,'11144222,11111222,11144222' 
TABS,ioos:station:wmo:42045:1,2002-11-02T07:09:00Z,26.2168,-96.4998,4.0,1010.849135,278.4058301,999.99,'11144222,11111222,11144222' 
TABS,ioos:station:wmo:42045:1,2002-11-02T07:39:00Z,26.2168,-96.4998,4.0,1008.964039,277.6474242,999.99,'11144222,11111222,11144222' 
TABS,ioos:station:wmo:42045:1,2002-11-02T08:09:00Z,26.2168,-96.4998,4.0,1010.668611,278.3362886,999.99,'11144222,11111222,11144222' 
TABS,ioos:station:wmo:42045:1,2002-11-02T08:39:00Z,26.2168,-96.4998,4.0,1009.958614,278.0567537,999.99,'11144222,11111222,11144222' 
TABS,ioos:station:wmo:42045:1,2002-11-02T09:09:00Z,26.2168,-96.4998,4.0,1008.648767,277.5128692,999.99,'11144222,11111222,11144222' 
TABS,ioos:station:wmo:42045:1,2002-11-02T10:09:00Z,26.2168,-96.4998,4.0,1009.381255,277.8218251,999.99,'11144222,11111222,11144222' 
TABS,ioos:station:wmo:42045:1,2002-11-02T10:39:00Z,26.2168,-96.4998,4.0,1009.184942,277.7402684,999.99,'11144222,11111222,11144222' 
TABS,ioos:station:wmo:42045:1,2002-11-02T11:09:00Z,26.2168,-96.4998,4.0,1011.292041,278.5739721,999.99,'11144222,11111222,11144222' 
TABS,ioos:station:wmo:42045:1,2002-11-02T11:39:00Z,26.2168,-96.4998,4.0,1010.628054,278.3205823,999.99,'11144222,11111222,11144222' 
TABS,ioos:station:wmo:42045:1,2002-11-02T12:09:00Z,26.2168,-96.4998,4.0,1008.151338,277.2953789,999.99,'11144222,11111222,11144222' 
TABS,ioos:station:wmo:42045:1,2002-11-02T12:39:00Z,26.2168,-96.4998,4.0,1011.446113,278.6316667,999.99,'11144222,11111222,11144222' 
TABS,ioos:station:wmo:42045:1,2002-11-02T13:09:00Z,26.2168,-96.4998,4.0,1007.28157,276.8981719,999.99,'11144222,11111222,11144222' 
TABS,ioos:station:wmo:42045:1,2002-11-02T13:39:00Z,26.2168,-96.4998,4.0,76.11386208,135.2771041,999.99,'11144222,11111222,11144222' 
TABS,ioos:station:wmo:42045:1,2002-11-02T14:09:00Z,26.2168,-96.4998,4.0,74.60820129,139.0383355,999.99,'11111222,11111222,11144222' 
TABS,ioos:station:wmo:42045:1,2002-11-02T14:39:00Z,26.2168,-96.4998,4.0,76.52373815,146.3891327,88.28,'11144222,11111222,11144222' 
TABS,ioos:station:wmo:42045:1,2002-11-02T15:09:00Z,26.2168,-96.4998,4.0,66.14143104,145.6398889,999.99,'11111222,11111222,11144222' 
TABS,ioos:station:wmo:42045:1,2002-11-02T16:09:00Z,26.2168,-96.4998,4.0,74.17262163,144.8810738,999.99,'11111222,11111222,11144222' 
TABS,ioos:station:wmo:42045:1,2002-11-02T16:39:00Z,26.2168,-96.4998,4.0,68.70343951,190.6951483,88.25,'11111222,11111222,11144222' 
TABS,ioos:station:wmo:42045:1,2002-11-02T17:09:00Z,26.2168,-96.4998,4.0,62.79953264,169.6619305,999.99,'11111222,11111222,11144222' 
TABS,ioos:station:wmo:42045:1,2002-11-02T17:39:00Z,26.2168,-96.4998,4.0,73.00031849,176.5761463,999.99,'11111222,11111222,11144222' 
TABS,ioos:station:wmo:42045:1,2002-11-02T18:09:00Z,26.2168,-96.4998,4.0,78.70071474,175.7081632,87.57,'11144222,11111222,11144222' 
TABS,ioos:station:wmo:42045:1,2002-11-02T19:09:00Z,26.2168,-96.4998,4.0,78.24586954,192.9690011,87.54,'11144222,11111222,11144222' 
TABS,ioos:station:wmo:42045:1,2002-11-02T19:39:00Z,26.2168,-96.4998,4.0,68.86484226,192.8881592,88.33,'11111222,11111222,11144222' 
TABS,ioos:station:wmo:42045:1,2002-11-02T20:09:00Z,26.2168,-96.4998,4.0,70.59892705,190.3057587,999.99,'11111222,11111222,11144222' 
TABS,ioos:station:wmo:42045:1,2002-11-02T20:39:00Z,26.2168,-96.4998,4.0,57.19180361,184.6939561,999.99,'11111222,11111222,11144222' 
TABS,ioos:station:wmo:42045:1,2002-11-02T21:09:00Z,26.2168,-96.4998,4.0,63.06809812,186.6012307,87.9,'11111222,11111222,11144222' 
TABS,ioos:station:wmo:42045:1,2002-11-02T22:09:00Z,26.2168,-96.4998,4.0,80.0881171,246.9790061,87.91,'11144222,11111222,11144222' 
TABS,ioos:station:wmo:42045:1,2002-11-02T22:39:00Z,26.2168,-96.4998,4.0,78.90610369,248.3901117,87.99,'11144222,11111222,11144222' 
TABS,ioos:station:wmo:42045:1,2002-11-02T23:09:00Z,26.2168,-96.4998,4.0,80.28161994,275.66158,87.62,'11144222,11111222,11144222' 
TABS,ioos:station:wmo:42045:1,2002-11-02T23:39:00Z,26.2168,-96.4998,4.0,64.54549481,277.6568046,87.21,'11111222,11111222,11144222' 
TABS,ioos:station:wmo:42045:1,2002-11-03T00:09:00Z,26.2168,-96.4998,4.0,74.83995858,295.3563128,87.66,'11111222,11111222,11144222' 
TABS,ioos:station:wmo:42045:1,2002-11-03T01:09:00Z,26.2168,-96.4998,4.0,1022.010382,191.9154907,87.06,'11144222,11111222,11144222' 
TABS,ioos:station:wmo:42045:1,2002-11-03T01:39:00Z,26.2168,-96.4998,4.0,1016.971438,190.4853845,999.99,'11144222,11111222,11144222' 
TABS,ioos:station:wmo:42045:1,2002-11-03T02:09:00Z,26.2168,-96.4998,4.0,1014.292006,189.6332918,87.51,'11144222,11111222,11144222' 
TABS,ioos:station:wmo:42045:1,2002-11-03T02:39:00Z,26.2168,-96.4998,4.0,1013.397499,189.3306169,999.99,'11144222,11111222,11144222' 
TABS,ioos:station:wmo:42045:1,2002-11-03T03:09:00Z,26.2168,-96.4998,4.0,1012.999975,189.192761,999.99,'11144222,11111222,11144222' 
TABS,ioos:station:wmo:42045:1,2002-11-03T03:39:00Z,26.2168,-96.4998,4.0,1013.431567,189.3423325,999.99,'11144222,11111222,11144222' 
TABS,ioos:station:wmo:42045:1,2002-11-03T04:09:00Z,26.2168,-96.4998,4.0,1014.053692,189.5536337,999.99,'11144222,11111222,11144222' 
TABS,ioos:station:wmo:42045:1,2002-11-03T04:39:00Z,26.2168,-96.4998,4.0,1012.755096,189.1067559,999.99,'11144222,11111222,11144222' 
TABS,ioos:station:wmo:42045:1,2002-11-03T05:09:00Z,26.2168,-96.4998,4.0,1012.126629,188.8820548,999.99,'11144222,11111222,11144222' 
TABS,ioos:station:wmo:42045:1,2002-11-03T05:39:00Z,26.2168,-96.4998,4.0,1012.778847,189.1151349,999.99,'11144222,11111222,11144222' 
TABS,ioos:station:wmo:42045:1,2002-11-03T06:09:00Z,26.2168,-96.4998,4.0,1012.295495,188.9430088,999.99,'11144222,11111222,11144222' 
TABS,ioos:station:wmo:42045:1,2002-11-03T07:09:00Z,26.2168,-96.4998,4.0,1010.84475,188.4043584,999.99,'11144222,11111222,11144222' 
TABS,ioos:station:wmo:42045:1,2002-11-03T07:39:00Z,26.2168,-96.4998,4.0,1009.939002,188.0491001,999.99,'11144222,11111222,11144222' 
TABS,ioos:station:wmo:42045:1,2002-11-03T08:09:00Z,26.2168,-96.4998,4.0,1010.369142,188.2197934,999.99,'11144222,11111222,11144222' 
TABS,ioos:station:wmo:42045:1,2002-11-03T08:39:00Z,26.2168,-96.4998,4.0,1009.972635,188.0625812,999.99,'11144222,11111222,11144222' 
TABS,ioos:station:wmo:42045:1,2002-11-03T09:09:00Z,26.2168,-96.4998,4.0,1011.014941,188.4693913,999.99,'11144222,11111222,11144222' 
TABS,ioos:station:wmo:42045:1,2002-11-03T10:09:00Z,26.2168,-96.4998,4.0,1014.890385,189.8303249,999.99,'11144222,11111222,11144222' 
TABS,ioos:station:wmo:42045:1,2002-11-03T10:39:00Z,26.2168,-96.4998,4.0,1013.623784,189.408148,86.34,'11144222,11111222,11144222' 
TABS,ioos:station:wmo:42045:1,2002-11-03T11:09:00Z,26.2168,-96.4998,4.0,1013.366712,189.3200165,87.47,'11144222,11111222,11144222' 
TABS,ioos:station:wmo:42045:1,2002-11-03T11:39:00Z,26.2168,-96.4998,4.0,1012.061867,188.8585626,999.99,'11144222,11111222,11144222' 
TABS,ioos:station:wmo:42045:1,2002-11-03T12:09:00Z,26.2168,-96.4998,4.0,1013.725316,189.442719,999.99,'11144222,11111222,11144222' 
TABS,ioos:station:wmo:42045:1,2002-11-03T13:09:00Z,26.2168,-96.4998,4.0,1012.794694,189.1207206,999.99,'11144222,11111222,11144222' 
TABS,ioos:station:wmo:42045:1,2002-11-03T13:39:00Z,26.2168,-96.4998,4.0,61.22447958,257.6163738,87.78,'11111222,11111222,11144222' 
TABS,ioos:station:wmo:42045:1,2002-11-03T14:09:00Z,26.2168,-96.4998,4.0,59.89563256,266.4391883,87.88,'11111222,11111222,11144222' 
TABS,ioos:station:wmo:42045:1,2002-11-03T14:39:00Z,26.2168,-96.4998,4.0,54.66993689,279.7517566,87.51,'11111222,11111222,11144222' 
TABS,ioos:station:wmo:42045:1,2002-11-03T15:09:00Z,26.2168,-96.4998,4.0,74.25005993,216.0257976,87.11,'11111222,11111222,11144222' 
TABS,ioos:station:wmo:42045:1,2002-11-03T16:09:00Z,26.2168,-96.4998,4.0,78.31203867,212.6329344,87.29,'11144222,11111222,11144222' 
TABS,ioos:station:wmo:42045:1,2002-11-03T16:39:00Z,26.2168,-96.4998,4.0,28.47588805,212.5237953,5.83,'11111222,11111222,11111222' 
TABS,ioos:station:wmo:42045:1,2002-11-03T17:09:00Z,26.2168,-96.4998,4.0,5.205689195,206.9589778,8.02,'11111222,11111222,11111222' 
TABS,ioos:station:wmo:42045:1,2002-11-03T17:39:00Z,26.2168,-96.4998,4.0,5.989624362,162.1098087,8.51,'11111222,11111222,11111222' 
TABS,ioos:station:wmo:42045:1,2002-11-03T18:09:00Z,26.2168,-96.4998,4.0,5.199509592,157.9737631,7.73,'11111222,11111222,11111222' 
TABS,ioos:station:wmo:42045:1,2002-11-03T19:09:00Z,26.2168,-96.4998,4.0,5.202480178,159.4055436,7.45,'11111222,11111222,11111222' 
TABS,ioos:station:wmo:42045:1,2002-11-03T19:39:00Z,26.2168,-96.4998,4.0,5.009361237,159.4308265,7.43,'11111222,11111222,11111222' 
TABS,ioos:station:wmo:42045:1,2002-11-03T20:09:00Z,26.2168,-96.4998,4.0,5.335175723,160.8521178,8.51,'11111222,11111222,11111222' 
TABS,ioos:station:wmo:42045:1,2002-11-03T20:39:00Z,26.2168,-96.4998,4.0,5.916865724,162.0858815,8.53,'11111222,11111222,11111222' 
TABS,ioos:station:wmo:42045:1,2002-11-03T21:09:00Z,26.2168,-96.4998,4.0,6.3752647,161.9063462,9.07,'11111222,11111222,11111222' 
TABS,ioos:station:wmo:42045:1,2002-11-03T22:09:00Z,26.2168,-96.4998,4.0,6.840847901,163.52563,9.93,'11111222,11111222,11111222' 
TABS,ioos:station:wmo:42045:1,2002-11-03T22:39:00Z,26.2168,-96.4998,4.0,6.986250783,162.4211742,9.94,'11111222,11111222,11111222' 
TABS,ioos:station:wmo:42045:1,2002-11-03T23:09:00Z,26.2168,-96.4998,4.0,6.416486578,155.3124402,9.46,'11111222,11111222,11111222' 
TABS,ioos:station:wmo:42045:1,2002-11-03T23:39:00Z,26.2168,-96.4998,4.0,7.657675888,266.1063016,999.99,'11111222,11111222,11144222' 
TABS,ioos:station:wmo:42045:1,2002-11-04T00:09:00Z,26.2168,-96.4998,4.0,8.247763333,278.3658666,0.92,'11111222,11111222,11111222' 
TABS,ioos:station:wmo:42045:1,2002-11-04T01:09:00Z,26.2168,-96.4998,4.0,26.83284554,287.4355074,43.81,'11111222,11111222,11111222' 
TABS,ioos:station:wmo:42045:1,2002-11-04T01:39:00Z,26.2168,-96.4998,4.0,46.11507563,300.3627923,84.97,'11111222,11111222,11144222' 
TABS,ioos:station:wmo:42045:1,2002-11-04T02:09:00Z,26.2168,-96.4998,4.0,71.26795914,303.7747192,87.52,'11111222,11111222,11144222' 
TABS,ioos:station:wmo:42045:1,2002-11-04T02:39:00Z,26.2168,-96.4998,4.0,82.50387688,300.6742725,88.14,'11144222,11111222,11144222' 
TABS,ioos:station:wmo:42045:1,2002-11-04T03:09:00Z,26.2168,-96.4998,4.0,80.45658519,290.4418094,88.01,'11144222,11111222,11144222' 
TABS,ioos:station:wmo:42045:1,2002-11-04T04:09:00Z,26.2168,-96.4998,4.0,80.94604932,294.8522038,87.78,'11144222,11111222,11144222' 
TABS,ioos:station:wmo:42045:1,2002-11-04T04:39:00Z,26.2168,-96.4998,4.0,70.93181867,293.5580944,87.94,'11111222,11111222,11144222' 
TABS,ioos:station:wmo:42045:1,2002-11-04T05:09:00Z,26.2168,-96.4998,4.0,78.68232457,307.0343825,87.91,'11144222,11111222,11144222' 
TABS,ioos:station:wmo:42045:1,2002-11-04T05:39:00Z,26.2168,-96.4998,4.0,81.3325181,314.1879162,87.67,'11144222,11111222,11144222' 
TABS,ioos:station:wmo:42045:1,2002-11-04T06:09:00Z,26.2168,-96.4998,4.0,1021.95467,191.9006794,999.99,'11144222,11111222,11144222' 
TABS,ioos:station:wmo:42045:1,2002-11-04T07:09:00Z,26.2168,-96.4998,4.0,80.54043084,321.2700784,87.42,'11144222,11111222,11144222' 
TABS,ioos:station:wmo:42045:1,2002-11-04T07:39:00Z,26.2168,-96.4998,4.0,1023.958038,192.4213823,87.74,'11144222,11111222,11144222' 
TABS,ioos:station:wmo:42045:1,2002-11-04T08:09:00Z,26.2168,-96.4998,4.0,81.74342604,321.8808388,86.41,'11144222,11111222,11144222' 
TABS,ioos:station:wmo:42045:1,2002-11-04T08:39:00Z,26.2168,-96.4998,4.0,81.89045976,317.2663756,999.99,'11144222,11111222,11144222' 
TABS,ioos:station:wmo:42045:1,2002-11-04T09:09:00Z,26.2168,-96.4998,4.0,81.39678925,314.6265899,87.5,'11144222,11111222,11144222' 
TABS,ioos:station:wmo:42045:1,2002-11-04T10:09:00Z,26.2168,-96.4998,4.0,80.9117408,313.0467079,87.34,'11144222,11111222,11144222' 
TABS,ioos:station:wmo:42045:1,2002-11-04T10:39:00Z,26.2168,-96.4998,4.0,1010.697627,188.3477171,999.99,'11144222,11111222,11144222' 
TABS,ioos:station:wmo:42045:1,2002-11-04T11:09:00Z,26.2168,-96.4998,4.0,43.59791853,272.0505633,87.63,'11111222,11111222,11144222' 
TABS,ioos:station:wmo:42045:1,2002-11-04T11:39:00Z,26.2168,-96.4998,4.0,66.04327142,229.9568143,87.91,'11111222,11111222,11144222' 
TABS,ioos:station:wmo:42045:1,2002-11-04T12:09:00Z,26.2168,-96.4998,4.0,79.44071123,219.6680942,87.22,'11144222,11111222,11144222' 
TABS,ioos:station:wmo:42045:1,2002-11-04T13:09:00Z,26.2168,-96.4998,4.0,70.55857496,269.1067313,88.02,'11111222,11111222,11144222' 
TABS,ioos:station:wmo:42045:1,2002-11-04T13:39:00Z,26.2168,-96.4998,4.0,71.84098343,255.1765026,88.05,'11111222,11111222,11144222' 
TABS,ioos:station:wmo:42045:1,2002-11-04T14:09:00Z,26.2168,-96.4998,4.0,75.88211515,230.4971183,87.82,'11144222,11111222,11144222' 
TABS,ioos:station:wmo:42045:1,2002-11-04T14:39:00Z,26.2168,-96.4998,4.0,73.56529413,224.3337147,999.99,'11111222,11111222,11144222' 
TABS,ioos:station:wmo:42045:1,2002-11-04T15:09:00Z,26.2168,-96.4998,4.0,5.855911543,150.7651114,8.48,'11111222,11111222,11111222' 
TABS,ioos:station:wmo:42045:1,2002-11-04T16:09:00Z,26.2168,-96.4998,4.0,5.246903849,150.7971854,8.09,'11111222,11111222,11111222' 
TABS,ioos:station:wmo:42045:1,2002-11-04T16:39:00Z,26.2168,-96.4998,4.0,4.926926019,157.4430166,7.56,'11111222,11111222,11111222' 
TABS,ioos:station:wmo:42045:1,2002-11-04T17:09:00Z,26.2168,-96.4998,4.0,5.083168303,159.1407854,7.55,'11111222,11111222,11111222' 
TABS,ioos:station:wmo:42045:1,2002-11-04T17:39:00Z,26.2168,-96.4998,4.0,16.65480411,212.2206682,84.57,'11111222,11111222,11144222' 
TABS,ioos:station:wmo:42045:1,2002-11-04T18:09:00Z,26.2168,-96.4998,4.0,42.10081353,348.393626,999.99,'11111222,11111222,11144222' 
TABS,ioos:station:wmo:42045:1,2002-11-04T19:09:00Z,26.2168,-96.4998,4.0,1020.39465,191.4776095,87.65,'11144222,11111222,11144222' 
TABS,ioos:station:wmo:42045:1,2002-11-04T19:39:00Z,26.2168,-96.4998,4.0,1023.734841,192.3645387,87.9,'11144222,11111222,11144222' 
TABS,ioos:station:wmo:42045:1,2002-11-04T20:09:00Z,26.2168,-96.4998,4.0,1023.410444,192.2814152,87.76,'11144222,11111222,11144222' 
TABS,ioos:station:wmo:42045:1,2002-11-04T20:39:00Z,26.2168,-96.4998,4.0,1023.210908,192.2299836,88.18,'11144222,11111222,11144222' 
TABS,ioos:station:wmo:42045:1,2002-11-04T21:09:00Z,26.2168,-96.4998,4.0,1022.934208,192.1582743,87.66,'11144222,11111222,11144222' 
TABS,ioos:station:wmo:42045:1,2002-11-04T22:09:00Z,26.2168,-96.4998,4.0,1021.950546,191.8995822,87.5,'11144222,11111222,11144222' 
TABS,ioos:station:wmo:42045:1,2002-11-04T22:39:00Z,26.2168,-96.4998,4.0,1022.002124,191.9132965,88.07,'11144222,11111222,11144222' 
TABS,ioos:station:wmo:42045:1,2002-11-04T23:09:00Z,26.2168,-96.4998,4.0,1022.489815,192.0421437,88.24,'11144222,11111222,11144222' 
TABS,ioos:station:wmo:42045:1,2002-11-04T23:39:00Z,26.2168,-96.4998,4.0,1021.542076,191.7903666,88.26,'11144222,11111222,11144222' 
TABS,ioos:station:wmo:42045:1,2002-11-05T00:09:00Z,26.2168,-96.4998,4.0,1021.997995,191.9121994,999.99,'11144222,11111222,11144222' 
TABS,ioos:station:wmo:42045:1,2002-11-05T01:09:00Z,26.2168,-96.4998,4.0,1021.39113,191.7497316,88.1,'11144222,11111222,11144222' 
TABS,ioos:station:wmo:42045:1,2002-11-05T01:39:00Z,26.2168,-96.4998,4.0,1020.650118,191.5480272,88.13,'11144222,11111222,11144222' 
TABS,ioos:station:wmo:42045:1,2002-11-05T02:09:00Z,26.2168,-96.4998,4.0,1019.522404,191.2336277,87.86,'11144222,11111222,11144222' 
TABS,ioos:station:wmo:42045:1,2002-11-05T02:39:00Z,26.2168,-96.4998,4.0,1018.56778,190.9599661,88.51,'11144222,11111222,11144222' 
TABS,ioos:station:wmo:42045:1,2002-11-05T03:09:00Z,26.2168,-96.4998,4.0,1018.308204,190.8842882,999.99,'11144222,11111222,11144222' 
TABS,ioos:station:wmo:42045:1,2002-11-05T04:09:00Z,26.2168,-96.4998,4.0,1017.192331,190.5524025,999.99,'11144222,11111222,11144222' 
TABS,ioos:station:wmo:42045:1,2002-11-05T04:39:00Z,26.2168,-96.4998,4.0,1016.35105,190.2946963,999.99,'11144222,11111222,11144222' 
TABS,ioos:station:wmo:42045:1,2002-11-05T05:09:00Z,26.2168,-96.4998,4.0,1016.066337,190.2059251,999.99,'11144222,11111222,11144222' 
TABS,ioos:station:wmo:42045:1,2002-11-05T05:39:00Z,26.2168,-96.4998,4.0,1015.092509,189.8959507,999.99,'11144222,11111222,11144222' 
TABS,ioos:station:wmo:42045:1,2002-11-05T06:09:00Z,26.2168,-96.4998,4.0,1014.582935,189.729611,999.99,'11144222,11111222,11144222' 